sat.trackr.live / text

‹ back to catalog

STARLINK-37191

NORAD 68334 · 2026-059P

PAYLOAD ACTIVE UNKNOWN

§ Identity

Operator
Country
US
Launch date
2026-03-22
Launch site
AFETR
Launch vehicle
Mass (kg)
RCS (m²)

Purposes: comms

External: N2YO · Heavens-Above · Gunter

§ Orbital elements

Epoch: 2026-09-20T04:51:45.828000Z

Period
93.85 min
Inclination
53.1573°
Eccentricity
0.0001362
Mean motion
15.34384670 rev/d
Perigee alt
461.8 km
Apogee alt
463.7 km
Semi-major
6,840.9 km
B*
6.6788e-4
RAAN
162.8493°
Arg perigee
95.4472°
Mean anomaly
264.6686°
Rev number
2,798

§ Raw data

STARLINK-371911 68334U 26059P   26263.20261375  .00022245  00000+0  66788-3 0  99932 68334  53.1573 162.8493 0001362  95.4472 264.6686 15.34384670 27981

JSON: /api/v1/satellites/68334 · /tle

For live sub-satellite position, see the globe view (requires WebGL).

§ Visibility from observer

Set your observer location to see the next 7 days of passes ≥ 10°. The values pass through the URL so the page stays shareable.

No JS? Fill the form by hand. The geolocation button needs JavaScript.